Wind_Speed
21 24 26 29 32 33 34 36 38 40 41 40 37 34 32 32 30 25 25 27 27 26 27 25 21 19 22 16 14 16 24 29 27 28 31 22 23 23 25 39 25 26 26 18 29
22 24 26 30 33 34 36 37 39 41 39 37 33 30 30 29 22 24 25 24 24 26 27 26 23 19 16 15 14 19 24 26 25 23 23 23 26 26 20 29 38 35 28 15 24
23 25 27 31 33 36 37 38 39 40 37 33 28 28 27 29 22 25 25 23 21 24 26 25 20 18 16 14 13 16 27 22 19 25 27 23 28 31 30 20 28 43 34 22 36
24 26 28 32 35 36 38 39 40 39 34 30 26 27 27 31 10 22 22 22 21 23 26 22 17 15 17 14 13 19 19 22 20 19 23 29 10 18 27 25 15 26 33 25 33
25 27 30 32 35 38 38 39 39 37 32 26 26 25 27 22 23 25 21 22 21 23 26 21 18 15 13 17 15 17 19 22 23 23 24 20 21 21 27 36 19 26 33 31 28
27 28 29 33 36 38 39 40 38 36 29 22 25 22 25 21 24 24 22 22 20 23 25 19 18 17 14 19 15 13 18 18 15 15 17 19 22 20 22 26 25 24 30 26 35
27 28 31 34 37 37 40 41 37 33 26 19 25 19 26 29 29 25 24 24 21 24 22 17 16 15 16 14 8 13 9 9 11 10 15 13 23 29 19 17 31 28 27 26 35
27 28 31 34 37 37 39 39 35 29 22 16 25 18 23 31 30 29 26 17 18 22 21 15 16 15 14 15 10 12 11 6 3 6 10 15 13 11 17 19 23 21 26 32 32
27 28 31 33 37 36 38 38 34 25 18 13 27 16 20 27 20 24 27 23 19 21 19 14 14 12 15 16 12 1 13 10 5 2 6 14 8 9 6 18 18 23 22 30 33
28 28 30 31 35 36 38 36 33 24 16 14 24 17 25 31 29 29 25 22 18 16 15 12 7 12 13 14 12 14 15 14 15 11 8 10 12 5 7 10 12 21 25 32 15
28 29 30 32 34 35 37 36 34 22 11 14 26 26 27 28 21 24 27 20 14 10 11 8 7 14 13 11 9 11 12 13 11 8 2 8 11 9 5 6 4 9 20 27 17
28 29 30 31 34 35 37 35 31 21 9 13 28 27 28 34 23 32 29 21 13 11 13 8 10 15 12 9 12 8 8 9 6 8 8 2 6 8 5 5 1 4 11 19 19
28 29 30 30 32 34 37 35 32 24 6 15 28 26 33 35 25 35 35 26 15 10 13 8 13 14 11 8 14 4 8 10 12 12 8 5 5 8 5 2 4 8 8 8 18
27 28 29 31 33 36 35 33 30 21 3 14 25 27 30 30 23 31 27 22 17 12 10 3 13 12 13 10 12 5 9 11 11 9 1 4 6 8 6 2 1 7 11 4 18
26 27 28 31 33 35 33 32 25 14 2 20 25 25 28 31 26 24 27 22 16 9 7 8 14 12 11 13 12 9 17 9 6 8 9 2 2 10 7 4 3 7 6 8 9
27 26 28 30 30 33 31 28 16 6 4 14 23 23 24 30 25 26 22 19 12 5 13 9 11 12 15 14 9 17 4 2 2 4 3 7 6 13 10 12 6 9 4 6 14
26 25 27 29 30 31 28 23 5 6 16 14 24 24 21 29 23 25 24 32 30 19 18 17 4 16 17 9 5 15 8 3 4 4 2 5 11 12 11 6 4 8 6 15 13
25 24 26 27 29 27 26 18 4 10 11 17 21 18 16 29 19 21 17 24 25 24 11 14 7 19 17 13 10 11 11 7 3 2 6 2 5 8 14 6 2 3 6 9 13
25 24 26 25 28 24 23 8 7 11 15 18 18 14 10 21 16 18 17 22 23 24 15 13 5 14 12 12 13 9 12 8 6 5 2 5 7 2 17 4 3 3 5 12 13
24 24 23 23 27 23 19 12 9 11 14 16 13 12 12 20 17 16 20 16 20 20 16 14 11 11 12 10 8 10 12 6 6 3 3 7 8 15 24 13 2 0 2 4 11
22 25 22 23 24 21 16 13 11 11 13 13 13 13 14 17 13 13 14 11 20 20 18 18 9 12 9 12 13 17 18 10 9 5 4 3 6 15 20 19 10 3 3 1 10
20 22 19 23 17 19 16 13 12 10 12 13 12 14 14 14 10 12 13 13 16 20 17 16 9 9 6 9 11 10 17 14 8 9 9 4 5 12 16 17 11 4 7 5 12
19 20 17 19 13 17 15 12 10 11 12 13 11 14 15 11 8 10 12 12 14 18 18 18 8 11 5 3 9 13 19 12 10 9 11 8 5 11 13 15 11 5 2 3 11
17 13 18 11 16 15 14 11 10 10 10 11 10 14 14 10 12 9 11 9 9 13 17 15 7 6 9 11 14 14 16 9 9 7 12 11 7 12 9 13 11 10 8 10 12
14 11 14 14 15 14 13 10 9 10 9 11 10 13 13 9 11 9 10 7 8 12 16 16 4 13 9 7 6 15 14 11 7 9 9 11 12 18 14 15 16 9 8 11 7
12 13 13 13 13 12 11 8 9 9 9 11 11 13 13 13 12 13 11 9 5 10 14 16 8 14 4 7 6 8 15 8 7 7 4 9 9 15 13 10 12 8 6 9 12
13 11 11 11 12 11 9 8 9 8 8 10 11 13 13 15 12 11 9 9 10 13 14 16 18 10 3 9 6 4 13 12 9 10 10 9 15 15 11 8 8 9 3 7 10
Wind_Direction
347 346 347 349 349 349 348 349 345 345 345 345 345 350 358 359 355 5 349 343 344 344 344 339 331 320 313 306 279 245 258 252 251 252 257 258 260 238 226 230 228 204 181 215 212
348 346 347 350 349 350 351 349 347 345 345 347 350 356 0 3 2 354 347 344 343 344 345 343 339 324 321 301 283 244 250 260 255 270 249 251 258 245 228 242 222 213 188 219 218
348 348 348 351 350 353 352 349 348 346 348 350 356 0 4 5 3 347 344 343 341 344 344 342 332 329 319 304 290 254 259 263 263 250 281 238 241 254 221 249 241 215 201 222 212
348 349 349 350 351 354 352 350 348 348 349 354 0 3 6 4 345 336 340 340 342 345 345 341 326 329 315 307 301 282 261 266 268 262 259 275 271 253 244 234 233 223 227 216 212
349 350 347 350 353 356 353 351 349 349 351 357 3 6 1 2 346 342 341 337 343 340 342 338 335 318 309 304 301 280 275 265 262 262 249 263 266 278 254 236 220 226 228 226 220
349 349 347 351 354 354 352 350 350 350 354 359 5 7 11 351 347 348 342 336 336 337 342 336 326 323 313 312 294 287 285 274 263 253 244 248 245 248 269 230 223 211 217 215 219
348 349 349 351 352 351 351 351 350 350 355 360 4 2 2 354 350 348 346 335 335 338 337 334 339 337 320 318 289 310 302 288 273 242 224 241 243 240 253 237 228 231 226 225 225
346 349 349 351 350 349 350 349 349 351 356 358 5 2 6 356 348 345 338 327 321 337 341 337 340 348 345 337 316 298 295 309 116 233 231 214 246 258 253 224 231 240 239 226 221
344 346 347 349 351 349 349 348 348 353 359 358 9 8 1 353 343 340 340 341 336 338 340 341 349 356 1 327 288 252 337 348 329 43 205 215 252 261 218 214 236 246 250 222 220
343 345 345 349 352 351 348 348 348 349 353 3 12 12 353 351 348 349 345 332 331 335 345 355 351 346 346 352 351 331 332 332 326 319 234 230 241 256 218 195 214 249 263 228 233
342 344 345 347 352 351 348 348 349 347 339 7 8 3 356 356 350 349 349 346 339 0 336 348 1 344 340 340 331 317 312 314 309 349 32 249 235 245 232 183 216 258 261 257 261
340 344 344 348 350 350 349 349 347 339 312 354 9 5 355 351 352 353 359 358 353 354 351 318 351 341 338 339 336 312 304 328 309 338 313 286 237 233 238 273 339 309 261 254 234
338 345 344 347 349 349 350 348 344 339 311 356 359 3 359 355 355 353 355 1 5 2 350 352 339 352 345 338 352 346 350 339 303 312 289 287 211 177 218 271 339 308 298 212 192
338 344 345 346 344 348 349 346 342 340 326 354 360 353 353 359 2 354 356 2 2 358 3 344 344 350 346 352 345 312 341 320 307 315 289 316 127 131 167 146 358 357 342 208 172
337 342 346 346 346 349 347 346 341 346 315 345 351 351 353 2 357 1 356 2 359 3 355 337 354 2 2 344 353 326 319 298 281 293 319 149 282 13 125 143 258 329 42 128 151
337 339 343 343 345 348 348 347 345 359 14 337 343 346 355 2 2 4 10 8 2 332 357 328 336 357 342 333 334 341 342 324 233 276 266 330 357 35 30 347 352 351 353 110 136
333 338 342 343 348 348 348 348 351 43 329 335 340 349 360 359 2 9 12 14 22 11 353 358 327 358 348 10 332 8 329 189 180 212 48 7 56 39 11 16 349 338 59 85 107
332 337 342 342 347 349 350 350 12 336 337 337 345 355 353 359 1 10 15 21 16 18 337 348 336 1 358 4 323 358 1 353 319 161 121 87 89 47 19 28 285 331 355 90 122
329 335 342 342 347 349 353 355 351 335 336 344 359 1 353 353 357 8 10 18 11 11 13 353 304 356 5 20 16 341 359 326 294 258 227 104 49 286 22 82 265 268 25 95 107
326 337 342 342 346 348 353 357 344 343 343 351 3 350 345 352 9 12 8 6 12 8 6 347 306 344 3 8 18 348 353 329 334 286 141 93 58 0 20 41 57 225 33 79 107
322 333 342 344 346 349 355 352 343 344 346 356 355 351 350 345 4 9 8 358 4 5 10 351 328 352 14 20 21 18 14 357 308 334 329 137 75 6 15 28 57 179 293 305 120
319 332 336 342 342 348 350 346 345 346 349 354 354 355 353 351 355 9 0 359 1 2 359 347 326 308 328 15 20 16 10 359 356 346 344 339 79 1 20 32 51 158 239 238 141
315 327 335 337 340 346 346 344 347 347 348 351 349 355 353 359 346 354 358 357 5 5 4 358 336 323 314 18 345 1 348 349 334 308 6 327 87 350 26 40 62 97 236 249 170
317 329 332 336 339 341 343 344 344 347 342 343 341 353 357 356 352 337 348 353 353 360 2 0 332 326 311 315 325 343 358 15 11 349 335 34 359 6 13 37 84 103 124 156 157
321 323 329 326 331 337 341 340 343 344 339 343 346 352 357 354 343 335 338 344 336 340 349 356 323 323 298 295 336 16 3 15 29 20 36 355 356 5 5 21 32 63 110 139 127
314 320 328 326 326 333 337 338 338 332 338 348 348 350 353 346 338 329 325 328 331 339 344 351 325 334 292 318 300 325 351 4 4 11 354 13 343 357 358 10 17 46 112 138 160
307 310 318 322 321 325 333 337 327 329 342 342 346 349 345 340 331 322 312 311 314 331 343 350 348 349 313 321 311 204 348 3 354 358 2 4 345 359 1 1 8 23 111 120 176
Height
3138 3135 3131 3127 3122 3117 3111 3106 3100 3093 3087 3080 3074 3068 3063 3057 3052 3049 3048 3044 3040 3036 3032 3028 3026 3023 3020 3018 3017 3019 3015 3010 3012 3016 3015 3018 3016 3017 3021 3023 3022 3027 3033 3046 3048
3136 3133 3129 3125 3120 3115 3109 3103 3097 3091 3084 3077 3071 3066 3061 3056 3050 3048 3046 3041 3036 3032 3030 3027 3023 3019 3018 3016 3015 3014 3011 3008 3013 3011 3011 3013 3011 3013 3015 3018 3020 3024 3029 3033 3040
3136 3132 3128 3123 3118 3112 3107 3101 3094 3088 3081 3076 3070 3064 3059 3055 3050 3047 3043 3039 3035 3030 3027 3023 3020 3018 3016 3013 3011 3009 3005 3007 3007 3011 3005 3006 3007 3009 3010 3013 3016 3021 3025 3035 3037
3135 3131 3127 3122 3116 3111 3105 3098 3091 3085 3079 3074 3068 3063 3057 3051 3058 3048 3042 3037 3033 3029 3025 3022 3018 3017 3014 3011 3009 3004 3003 3002 3002 3003 3004 3000 3004 3005 3006 3007 3012 3018 3019 3025 3031
3133 3129 3125 3120 3114 3109 3102 3096 3089 3082 3076 3071 3066 3061 3057 3054 3053 3045 3040 3036 3031 3028 3023 3018 3015 3014 3012 3008 3005 3001 2999 2998 2997 2998 2999 3001 3000 3001 3003 3005 3007 3011 3013 3018 3023
3132 3127 3123 3118 3112 3107 3100 3093 3086 3080 3074 3070 3066 3062 3057 3057 3050 3044 3038 3034 3030 3026 3022 3018 3014 3011 3007 3005 3001 2997 2994 2991 2991 2993 2996 2999 3000 3001 2997 3003 3005 3007 3013 3014 3017
3132 3127 3123 3117 3111 3105 3098 3091 3084 3078 3072 3069 3065 3061 3057 3054 3045 3041 3037 3031 3028 3026 3021 3017 3013 3008 3006 3002 2999 2994 2991 2989 2989 2991 2994 2996 2995 2993 2995 2999 3003 3004 3005 3010 3013
3131 3127 3121 3116 3109 3103 3097 3089 3082 3076 3071 3069 3064 3060 3057 3051 3043 3038 3036 3033 3028 3024 3019 3015 3012 3007 3004 3001 2998 2995 2992 2990 2989 2990 2992 2994 2992 2993 2993 2996 2999 3001 3003 3006 3010
3130 3125 3120 3114 3108 3101 3095 3088 3081 3074 3071 3068 3064 3059 3059 3052 3048 3041 3033 3028 3024 3021 3017 3014 3011 3008 3006 3003 2998 2996 2992 2990 2990 2989 2988 2991 2991 2989 2990 2994 2997 2999 2999 3003 3006
3128 3123 3118 3113 3107 3100 3094 3086 3079 3074 3071 3069 3065 3061 3057 3050 3041 3036 3032 3026 3023 3021 3017 3015 3014 3012 3008 3003 3000 2997 2993 2991 2990 2989 2988 2988 2989 2989 2990 2992 2995 2996 2997 3000 3003
3126 3121 3116 3112 3105 3099 3093 3085 3079 3074 3071 3069 3065 3059 3055 3051 3042 3038 3030 3026 3022 3021 3019 3014 3015 3013 3008 3005 3001 2999 2996 2993 2991 2988 2987 2988 2989 2988 2989 2990 2990 2990 2997 2999 3003
3124 3119 3114 3109 3103 3096 3090 3083 3078 3075 3070 3068 3064 3058 3053 3046 3040 3034 3030 3025 3022 3022 3018 3017 3015 3011 3008 3005 3001 2998 2996 2993 2991 2990 2990 2987 2987 2987 2989 2991 2993 2997 2998 2997 3001
3123 3117 3113 3107 3101 3095 3089 3083 3075 3070 3069 3067 3063 3058 3050 3045 3039 3034 3027 3024 3020 3019 3019 3020 3018 3013 3010 3006 3002 2999 2997 2994 2992 2990 2988 2987 2987 2988 2988 2989 2990 2991 2989 2991 2995
3120 3116 3110 3104 3100 3092 3087 3081 3074 3068 3066 3069 3063 3056 3054 3046 3041 3036 3030 3028 3022 3019 3016 3016 3015 3012 3010 3006 3003 2998 2998 2994 2990 2991 2986 2986 2983 2988 2990 2991 2991 2990 2988 2990 2994
3117 3114 3108 3101 3096 3091 3086 3078 3073 3069 3069 3069 3063 3060 3053 3049 3046 3040 3031 3026 3021 3020 3020 3019 3013 3009 3010 3007 3003 3001 2996 2992 2990 2989 2987 2985 2981 2988 2986 2988 2991 2989 2987 2989 2993
3115 3112 3107 3102 3096 3090 3083 3078 3074 3073 3070 3068 3065 3059 3055 3049 3044 3039 3036 3030 3024 3021 3020 3018 3015 3012 3009 3006 3003 2999 2996 2993 2992 2990 2988 2985 2985 2991 2991 2992 2989 2989 2990 2991 2992
3113 3109 3105 3099 3093 3087 3082 3077 3076 3073 3075 3071 3063 3057 3053 3049 3045 3040 3035 3028 3025 3023 3022 3020 3018 3014 3009 3007 3005 3001 2997 2993 2992 2990 2985 2986 2988 2998 2994 2991 2991 2990 2987 2985 2988
3110 3106 3102 3098 3092 3086 3082 3078 3075 3075 3072 3070 3064 3060 3056 3050 3047 3041 3039 3035 3032 3029 3026 3026 3021 3015 3012 3011 3008 3004 3002 3000 2989 2986 2986 2990 2993 2999 2995 2992 2992 2989 2988 2987 2990
3108 3104 3099 3094 3090 3086 3082 3079 3078 3076 3074 3069 3064 3062 3061 3056 3051 3045 3043 3040 3037 3032 3033 3028 3024 3019 3015 3012 3012 3007 3006 3005 3001 2993 2991 2993 2999 2997 2993 2993 2992 2991 2990 2991 2995
3105 3101 3097 3093 3089 3085 3083 3080 3077 3075 3072 3069 3066 3064 3061 3056 3052 3049 3046 3044 3039 3037 3035 3034 3027 3021 3017 3015 3014 3012 3010 3005 3002 2995 2988 2995 3001 3004 2995 2993 2993 2993 2993 2996 2997
3101 3097 3094 3090 3087 3084 3082 3080 3077 3075 3072 3071 3067 3064 3062 3058 3054 3052 3050 3048 3044 3041 3037 3036 3034 3024 3021 3018 3016 3013 3011 3009 3006 3002 2995 2990 3009 3008 3003 2998 2997 2997 2997 3000 3001
3099 3095 3092 3088 3086 3081 3079 3077 3076 3074 3072 3069 3066 3064 3061 3059 3057 3055 3052 3048 3046 3042 3039 3037 3034 3028 3025 3022 3020 3018 3018 3014 3010 3007 3002 3000 3012 3009 3006 3002 3001 3000 3001 3003 3004
3095 3093 3091 3087 3084 3080 3077 3076 3075 3073 3071 3068 3066 3064 3062 3059 3056 3054 3053 3049 3047 3046 3041 3038 3038 3031 3023 3024 3023 3020 3019 3016 3013 3010 3008 3001 3012 3010 3009 3006 3003 3003 3001 3000 3001
3092 3089 3088 3085 3083 3079 3076 3075 3074 3071 3071 3069 3068 3064 3061 3059 3057 3055 3053 3050 3048 3047 3044 3039 3039 3039 3036 3033 3030 3024 3020 3018 3016 3015 3015 3016 3015 3010 3008 3006 3006 3006 3006 3007 3007
3089 3087 3085 3083 3079 3077 3075 3074 3072 3071 3069 3068 3067 3065 3062 3059 3057 3054 3051 3049 3048 3047 3045 3042 3039 3036 3033 3032 3029 3026 3022 3020 3018 3018 3018 3018 3014 3012 3010 3008 3006 3006 3006 3006 3009
3087 3085 3082 3081 3079 3075 3073 3072 3071 3070 3069 3067 3065 3063 3061 3059 3057 3053 3051 3048 3047 3047 3044 3042 3039 3034 3032 3031 3029 3028 3024 3022 3021 3019 3018 3018 3017 3016 3013 3011 3010 3007 3008 3008 3011
3082 3081 3080 3078 3075 3074 3073 3072 3070 3068 3067 3066 3064 3063 3060 3058 3056 3053 3051 3050 3048 3046 3044 3041 3038 3034 3032 3031 3027 3028 3026 3024 3023 3023 3020 3020 3020 3015 3014 3013 3012 3012 3011 3010 3013